Regional Weather Roundup
Issued by NWS

Home | Current Version | Previous Version | Graphics & Text | Print | Product List | Glossary On
Versions: 1 2 3 4 5 6 7 8 9 10 11 12 13 14 15 16 17 18 19 20 21 22 23 24 25 26 27 28 29 30 31 32 33 34 35 36 37 38 39 40 41 42 43 44 45 46 47 48 49 50
000
ASUS43 KFSD 201502
RWRSD

WEATHER ROUNDUP FOR SOUTH DAKOTA
NATIONAL WEATHER SERVICE SIOUX FALLS SD
900 AM CST MON FEB 20 2017

NOTE: "FAIR" INDICATES FEW OR NO CLOUDS BELOW 12,000 FEET WITH NO
SIGNIFICANT WEATHER AND/OR OBSTRUCTIONS TO VISIBILITY.


SDZ001>005-009-010-012>017-201600-
NORTHWEST AND NORTH CENTRAL SOUTH DAKOTA

CITY           SKY/WX    TMP DP  RH WIND       PRES   REMARKS
BUFFALO          N/A     38  33  82 W14       29.71R
FAITH            N/A     43  39  86 NW17      29.74R
MOBRIDGE       RAIN      39  35  86 NW18G28   29.66R FOG
$$

SDZ012>016-024>037-041>051-057-063-072>074-201600-
SOUTHWEST AND SOUTH CENTRAL SOUTH DAKOTA

CITY           SKY/WX    TMP DP  RH WIND       PRES   REMARKS
RAPID CTY ARPT MOSUNNY   43  38  82 NW3       29.79R
PIERRE         CLOUDY    43  39  86 NW24G32   29.68R
CUSTER         CLOUDY    37  27  67 W8        29.84R
ELLSWORTH AFB  MOSUNNY   46  38  75 NW9       29.78R
PHILIP         CLOUDY    47  40  76 NW17      29.74R
PINE RIDGE     CLOUDY    39  37  92 SW8       29.83R
SPEARFISH      FAIR      43  32  65 W14       29.83R
WINNER         PTSUNNY   49  40  71 NW22G31   29.69R
$$

SDZ004>011-016>023-039-040-201600-
NORTHEAST SOUTH DAKOTA

CITY           SKY/WX    TMP DP  RH WIND       PRES   REMARKS
ABERDEEN       PTSUNNY   50  47  89 S9        29.59F FOG
WATERTOWN      CLOUDY    49  49 100 S12       29.63F FOG
BROOKINGS      CLOUDY    52  51  97 S13       29.66F FOG
SISSETON         N/A     54  52  93 SW9       29.63F
$$

SDZ017-020-022-023-036>040-048>070-201600-
SOUTHEAST SOUTH DAKOTA

CITY           SKY/WX    TMP DP  RH WIND       PRES   REMARKS
SIOUX FALLS    CLOUDY    55  55 100 S12       29.68F FOG
HURON          CLOUDY    52  52 100 S13G20    29.60S
CHAMBERLAIN    CLOUDY    48  41  77 NW26G32   29.65R
MITCHELL       CLOUDY    52  51  97 SE10      29.63R FOG
YANKTON        CLOUDY    54  52  94 SE5       29.66F
$$

ABBREVIATIONS USED IN REMARKS
   TC - TEMPERATURE IN CELSIUS
  WCI - WIND CHILL INDEX
   HX - HEAT INDEX
  VSB - VISIBILITY




USA.gov is the U.S. government's official web portal to all federal, state and local government web resources and services.